CW4352 Weather Reports


time (UTC)temp
C
wind
direction
speed
KPH
gust
KPH
rain 1hr
cm
rain 24hr
cm
rain mn
cm
humidity
%
barometer
mb
20260903101707 30 19 3.2 8.0 0.00 0.00 0.00 42 1014.8
20260903100207 30 15 3.2 8.0 0.00 0.00 0.00 43 1014.8
20260903094706 29 22 3.2 4.8 0.00 0.00 0.00 43 1015.0
20260903094207 29 33 3.2 4.8 0.00 0.00 0.00 45 1015.0
20260903093707 29 355 3.2 4.8 0.00 0.00 0.00 45 1015.0
20260903093206 29 11 1.6 8.0 0.00 0.00 0.00 45 1015.0
20260903091707 29 42 3.2 4.8 0.00 0.00 0.00 45 1015.0
20260903091207 29 25 3.2 4.8 0.00 0.00 0.00 45 1014.9
20260903090206 28 35 1.6 4.8 0.00 0.00 0.00 45 1014.7
20260903084707 28 53 1.6 4.8 0.00 0.00 0.00 45 1014.7
20260903084206 28 65 3.2 8.0 0.00 0.00 0.00 46 1014.7
20260903083206 28 89 3.2 8.0 0.00 0.00 0.00 46 1014.7
20260903081206 27 89 1.6 8.0 0.00 0.00 0.00 47 1014.7
20260903080707 27 89 3.2 8.0 0.00 0.00 0.00 48 1014.7
20260903080206 27 89 3.2 8.0 0.00 0.00 0.00 49 1014.7
20260903073207 26 89 3.2 8.0 0.00 0.00 0.00 53 1014.6
20260903071206 25 89 0.0 8.0 0.00 0.00 0.00 56 1014.4
20260903070706 25 89 3.2 8.0 0.00 0.00 0.00 56 1014.4
20260903064706 23 89 0.0 1.6 0.00 0.00 0.00 61 1014.3
20260903063706 23 89 0.0 3.2 0.00 0.00 0.00 62 1014.3
20260903063207 22 89 1.6 4.8 0.00 0.00 0.00 64 1014.3
20260903060206 21 89 1.6 4.8 0.00 0.00 0.00 66 1014.3
20260903054706 21 89 1.6 4.8 0.00 0.00 0.00 65 1014.3
20260903051706 21 89 0.0 3.2 0.00 0.00 0.00 65 1013.8
20260903050706 21 89 3.2 4.8 0.00 0.00 0.00 65 1013.8
20260903044706 21 89 3.2 8.0 0.00 0.00 0.00 65 1013.6
20260903043706 21 89 3.2 8.0 0.00 0.00 0.00 65 1013.6
20260903043207 21 89 3.2 8.0 0.00 0.00 0.00 65 1013.6
20260903041706 21 89 4.8 8.0 0.00 0.00 0.00 65 1013.2
20260903040706 20 89 3.2 4.8 0.00 0.00 0.00 66 1013.2
20260903034706 21 89 0.0 0.0 0.00 0.00 0.00 65 1013.2
20260903034206 21 89 0.0 0.0 0.00 0.00 0.00 65 1013.2
20260903033707 21 89 0.0 3.2 0.00 0.00 0.00 64 1013.4
20260903031706 21 89 3.2 8.0 0.00 0.00 0.00 64 1013.4
20260903031206 21 89 4.8 9.7 0.00 0.00 0.00 64 1013.4
20260903030707 21 89 6.4 11.3 0.00 0.00 0.00 65 1013.4
20260903030206 21 89 1.6 9.7 0.00 0.00 0.00 65 1013.4
20260903024706 21 89 4.8 11.3 0.00 0.00 0.00 64 1013.4
20260903024206 21 89 8.0 11.3 0.00 0.00 0.00 64 1013.4
20260903023207 21 89 6.4 11.3 0.00 0.00 0.00 65 1013.4
20260903021707 21 89 1.6 8.0 0.00 0.00 0.00 66 1013.4
20260903021206 21 89 1.6 4.8 0.00 0.00 0.00 65 1013.4
20260903020206 21 89 3.2 8.0 0.00 0.00 0.00 65 1013.4
20260903014706 22 89 1.6 4.8 0.00 0.00 0.00 63 1013.5
20260903014207 22 89 1.6 8.0 0.00 0.00 0.00 63 1013.5
20260903013206 22 89 3.2 12.9 0.00 0.00 0.00 63 1013.5
20260903011206 22 89 1.6 4.8 0.00 0.00 0.00 64 1013.6
20260903010207 22 89 3.2 8.0 0.00 0.00 0.00 65 1013.2
20260903004707 22 89 4.8 8.0 0.00 0.00 0.00 64 1013.2
20260903004206 22 89 4.8 9.7 0.00 0.00 0.00 64 1013.2
20260903001706 22 89 8.0 11.3 0.00 0.00 0.00 63 1013.2
20260903000706 22 89 4.8 8.0 0.00 0.00 0.00 65 1013.2
20260902233207 22 89 4.8 9.7 0.00 0.00 0.00 64 1013.2
20260902231706 22 89 8.0 12.9 0.00 0.00 0.00 63 1013.2
20260902231206 22 88 9.7 14.5 0.00 0.00 0.00 63 1013.2
20260902223209 23 88 4.8 8.0 0.00 0.00 0.00 67 1012.3
20260902221708 23 88 8.0 8.0 0.00 0.00 0.00 66 1012.3
20260902220706 23 88 4.8 9.7 0.00 0.00 0.00 66 1012.7
20260902220206 23 88 6.4 12.9 0.00 0.00 0.00 65 1012.7
20260902213706 23 88 1.6 4.8 0.00 0.00 0.00 66 1012.7
20260902203706 23 88 0.0 1.6 0.00 0.00 0.00 69 1012.5
20260902203205 23 88 1.6 8.0 0.00 0.00 0.00 69 1012.5
20260902201205 23 88 1.6 3.2 0.00 0.00 0.00 69 1012.3
20260902200206 22 88 1.6 3.2 0.00 0.00 0.00 70 1012.3
20260902194705 23 88 1.6 3.2 0.00 0.00 0.00 72 1012.3
20260902193705 23 88 0.0 3.2 0.00 0.00 0.00 68 1012.1
20260902191205 24 88 1.6 4.8 0.00 0.00 0.00 66 1012.1
20260902190706 24 88 1.6 3.2 0.00 0.00 0.00 65 1012.1
20260902181706 25 88 3.2 4.8 0.00 0.00 0.00 56 1011.9
20260902180205 25 88 3.2 11.3 0.00 0.00 0.00 54 1011.6
20260902174705 26 88 4.8 9.7 0.00 0.00 0.00 51 1011.6
20260902171705 28 68 4.8 12.9 0.00 0.03 0.00 43 1011.6
20260902170206 30 37 4.8 11.3 0.00 0.03 0.00 44 1011.3
20260902164705 30 355 1.6 4.8 0.00 0.03 0.00 37 1011.3
20260902163205 30 5 3.2 4.8 0.00 0.03 0.00 37 1011.3
20260902161706 31 9 1.6 4.8 0.00 0.03 0.00 36 1011.6
20260902161205 31 10 3.2 4.8 0.00 0.03 0.00 35 1011.6
20260902153205 31 5 1.6 4.8 0.00 0.03 0.00 35 1011.7
20260902151205 31 17 3.2 4.8 0.00 0.03 0.00 36 1011.9
20260902143206 31 27 3.2 4.8 0.00 0.03 0.00 35 1012.0
20260902141206 31 41 1.6 4.8 0.00 0.03 0.00 38 1012.0
20260902140205 31 345 3.2 11.3 0.00 0.03 0.00 38 1012.2
20260902134205 31 36 1.6 4.8 0.00 0.03 0.00 39 1012.2
20260902133206 31 48 3.2 4.8 0.00 0.03 0.00 42 1012.2
20260902123205 30 22 3.2 9.7 0.00 0.03 0.00 49 1012.9
20260902120705 30 11 1.6 12.9 0.00 0.03 0.00 50 1013.2
20260902114705 30 22 3.2 4.8 0.00 0.03 0.00 51 1012.3
20260902114205 30 39 3.2 9.7 0.00 0.03 0.00 51 1012.3
20260902113706 30 36 3.2 4.8 0.00 0.03 0.00 52 1012.3
20260902111204 30 14 1.6 4.8 0.00 0.03 0.00 52 1013.7
20260902110704 30 23 1.6 8.0 0.00 0.03 0.00 53 1013.7
20260902104704 29 49 3.2 8.0 0.00 0.03 0.00 55 1014.0
20260902104204 28 22 3.2 8.0 0.00 0.03 0.00 58 1014.0
20260902103204 28 49 3.2 8.0 0.00 0.03 0.00 58 1014.0